Orbital Elements at Epoch 2459200.5 (2020-Dec-17.0) TDB
Reference: JPL 11 (heliocentric ecliptic J2000)
Element | Value | Uncertainty (1-sigma) | Units |
e | .1763127283030838 | 7.1435e-08 | |
a | 2.586568651308122 | 3.4581e-08 | au |
q | 2.130523675452759 | 1.8826e-07 | au |
i | .7533002597218789 | 8.5572e-06 | deg |
node | 141.20515361859 | 0.00051981 | deg |
peri | 235.3867589280578 | 0.00052078 | deg |
M | 313.3565493358942 | 4.3377e-05 | deg |
tp | 2459397.366859151968 (2021-Jul-01.86685915) | 0.00018656 | TDB |
period | 1519.443100491871 4.16 | 3.0471e-05 8.343e-08 | d yr |
n | .2369289115752092 | 4.7514e-09 | deg/d |
Q | 3.042613627163485 | 4.0678e-08 | au |
|
| | Orbit Determination Parameters
Additional Information
|